Location: Unspecified
(0.0000°N, 0.0000°E)
Time: 21:14:36
(UTC+00:00)

Okean 3 - Pass Details

Date: 28 May 2019
Orbit: 577 x 601 km, 82.5° (Epoch: 19 June)

Event Time Altitude Azimuth Distance (km) Brightness Sun altitude
Exits shadow 20:13:14 26° 322° (NW) 1,159 5.4 -31.3°
Drops below altitude 10° 20:15:21 10° 342° (NNW) 1,880 6.5 -31.8°
Sets 20:17:38 0° 351° (N) 2,774 7.3 -32.3°
